Time,TemperatureF,DewpointF,PressureIn,WindDirection,WindDirectionDegrees,WindSpeedMPH,WindSpeedGustMPH,Humidity,HourlyPrecipIn,Conditions,Clouds,dailyrainin,SoftwareType,DateUTC
2013-02-24 00:02:00,32.0,-99.9,-100.00,North,-999,-999.0,-999.0,-999,0.00,,,0.09,,2013-02-24 05:02:00,
2013-02-24 00:11:00,32.0,-99.9,-100.00,North,-999,-999.0,-999.0,-999,0.00,,,0.09,,2013-02-24 05:11:00,
2013-02-24 00:22:00,32.0,-99.9,-100.00,North,-999,-999.0,-999.0,-999,0.00,,,0.09,,2013-02-24 05:22:00,
2013-02-24 00:30:00,32.0,-99.9,-100.00,North,-999,-999.0,-999.0,-999,0.02,,,0.11,,2013-02-24 05:30:00,
2013-02-24 00:32:00,32.0,-99.9,-100.00,North,-999,-999.0,-999.0,-999,0.00,,,0.09,,2013-02-24 05:32:00,
2013-02-24 00:42:00,32.0,-99.9,-100.00,North,-999,-999.0,-999.0,-999,0.00,,,0.09,,2013-02-24 05:42:00,
2013-02-24 00:52:00,32.0,-99.9,-100.00,North,-999,-999.0,-999.0,-999,0.02,,,0.11,,2013-02-24 05:52:00,
2013-02-24 01:02:00,32.0,-99.9,-100.00,North,-999,-999.0,-999.0,-999,0.02,,,0.11,,2013-02-24 06:02:00,
2013-02-24 01:12:00,32.0,-99.9,-100.00,North,-999,-999.0,-999.0,-999,0.02,,,0.11,,2013-02-24 06:12:00,
2013-02-24 01:22:00,32.0,-99.9,-100.00,North,-999,-999.0,-999.0,-999,0.02,,,0.11,,2013-02-24 06:22:00,
2013-02-24 01:30:00,32.0,-99.9,-100.00,North,-999,-999.0,-999.0,-999,0.01,,,0.12,,2013-02-24 06:30:00,
2013-02-24 02:02:00,32.0,-99.9,-100.00,North,-999,-999.0,-999.0,-999,0.01,,,0.12,,2013-02-24 07:02:00,
2013-02-24 02:12:00,32.0,-99.9,-100.00,North,-999,-999.0,-999.0,-999,0.01,,,0.12,,2013-02-24 07:12:00,
2013-02-24 02:22:00,32.0,-99.9,-100.00,North,-999,-999.0,-999.0,-999,0.01,,,0.12,,2013-02-24 07:22:00,
2013-02-24 02:30:00,32.0,-99.9,-100.00,North,-999,-999.0,-999.0,-999,0.00,,,0.12,,2013-02-24 07:30:00,
2013-02-24 03:01:00,32.0,-99.9,-100.00,North,-999,-999.0,-999.0,-999,0.00,,,0.12,,2013-02-24 08:01:00,
2013-02-24 03:11:00,32.0,-99.9,-100.00,North,-999,-999.0,-999.0,-999,0.00,,,0.12,,2013-02-24 08:11:00,
2013-02-24 03:22:00,32.0,-99.9,-100.00,North,-999,-999.0,-999.0,-999,0.00,,,0.12,,2013-02-24 08:22:00,
2013-02-24 03:30:00,32.0,-99.9,-100.00,North,-999,-999.0,-999.0,-999,0.00,,,0.12,,2013-02-24 08:30:00,
2013-02-24 04:02:00,32.0,-99.9,-100.00,North,-999,-999.0,-999.0,-999,0.00,,,0.12,,2013-02-24 09:02:00,
2013-02-24 04:11:00,32.0,-99.9,-100.00,North,-999,-999.0,-999.0,-999,0.00,,,0.12,,2013-02-24 09:11:00,
2013-02-24 04:22:00,32.0,-99.9,-100.00,North,-999,-999.0,-999.0,-999,0.00,,,0.12,,2013-02-24 09:22:00,
2013-02-24 04:30:00,32.0,-99.9,-100.00,North,-999,-999.0,-999.0,-999,0.00,,,0.12,,2013-02-24 09:30:00,
2013-02-24 05:01:00,32.0,-99.9,-100.00,North,-999,-999.0,-999.0,-999,0.00,,,0.12,,2013-02-24 10:01:00,
2013-02-24 05:11:00,32.0,-99.9,-100.00,North,-999,-999.0,-999.0,-999,0.00,,,0.12,,2013-02-24 10:11:00,
2013-02-24 05:22:00,32.0,-99.9,-100.00,North,-999,-999.0,-999.0,-999,0.00,,,0.12,,2013-02-24 10:22:00,
2013-02-24 05:52:00,31.0,-99.9,-100.00,North,-999,-999.0,-999.0,-999,0.00,,,0.12,,2013-02-24 10:52:00,
2013-02-24 06:01:00,31.0,-99.9,-100.00,North,-999,-999.0,-999.0,-999,0.00,,,0.12,,2013-02-24 11:01:00,
2013-02-24 06:11:00,31.0,-99.9,-100.00,North,-999,-999.0,-999.0,-999,0.00,,,0.12,,2013-02-24 11:11:00,
2013-02-24 06:22:00,31.0,-99.9,-100.00,North,-999,-999.0,-999.0,-999,0.00,,,0.12,,2013-02-24 11:22:00,
2013-02-24 06:32:00,31.0,-99.9,-100.00,North,-999,-999.0,-999.0,-999,0.00,,,0.12,,2013-02-24 11:32:00,
2013-02-24 06:42:00,31.0,-99.9,-100.00,North,-999,-999.0,-999.0,-999,0.00,,,0.12,,2013-02-24 11:42:00,
2013-02-24 07:02:00,31.0,-99.9,-100.00,North,-999,-999.0,-999.0,-999,0.01,,,0.13,,2013-02-24 12:02:00,
2013-02-24 07:11:00,31.0,-99.9,-100.00,North,-999,-999.0,-999.0,-999,0.01,,,0.13,,2013-02-24 12:11:00,
2013-02-24 07:22:00,31.0,-99.9,-100.00,North,-999,-999.0,-999.0,-999,0.01,,,0.13,,2013-02-24 12:22:00,
2013-02-24 08:05:00,32.0,-99.9,-100.00,North,-999,-999.0,-999.0,-999,0.00,,,0.13,,2013-02-24 13:05:00,
2013-02-24 08:17:00,32.0,-99.9,-100.00,North,-999,-999.0,-999.0,-999,0.00,,,0.13,,2013-02-24 13:17:00,
2013-02-24 08:28:00,32.0,-99.9,-100.00,North,-999,-999.0,-999.0,-999,0.00,,,0.13,,2013-02-24 13:28:00,
2013-02-24 08:56:00,32.0,-99.9,-100.00,North,-999,-999.0,-999.0,-999,0.01,,,0.14,,2013-02-24 13:56:00,
2013-02-24 09:06:00,32.0,-99.9,-100.00,North,-999,-999.0,-999.0,-999,0.01,,,0.14,,2013-02-24 14:06:00,
2013-02-24 09:15:00,32.0,-99.9,-100.00,North,-999,-999.0,-999.0,-999,0.01,,,0.14,,2013-02-24 14:15:00,
2013-02-24 09:26:00,32.0,-99.9,-100.00,North,-999,-999.0,-999.0,-999,0.01,,,0.14,,2013-02-24 14:26:00,
2013-02-24 09:30:00,31.0,-99.9,-100.00,North,-999,-999.0,-999.0,-999,0.02,,,0.16,,2013-02-24 14:30:00,
2013-02-24 09:56:00,31.0,-99.9,-100.00,North,-999,-999.0,-999.0,-999,0.02,,,0.16,,2013-02-24 14:56:00,
2013-02-24 10:06:00,31.0,-99.9,-100.00,North,-999,-999.0,-999.0,-999,0.02,,,0.16,,2013-02-24 15:06:00,
2013-02-24 10:15:00,31.0,-99.9,-100.00,North,-999,-999.0,-999.0,-999,0.02,,,0.16,,2013-02-24 15:15:00,
2013-02-24 10:24:00,31.0,-99.9,-100.00,North,-999,-999.0,-999.0,-999,0.02,,,0.16,,2013-02-24 15:24:00,
2013-02-24 10:30:00,32.0,-99.9,-100.00,North,-999,-999.0,-999.0,-999,0.05,,,0.21,,2013-02-24 15:30:00,
2013-02-24 10:53:00,32.0,-99.9,-100.00,North,-999,-999.0,-999.0,-999,0.05,,,0.21,,2013-02-24 15:53:00,
2013-02-24 11:02:00,32.0,-99.9,-100.00,North,-999,-999.0,-999.0,-999,0.05,,,0.21,,2013-02-24 16:02:00,
2013-02-24 11:12:00,32.0,-99.9,-100.00,North,-999,-999.0,-999.0,-999,0.05,,,0.21,,2013-02-24 16:12:00,
2013-02-24 11:22:00,32.0,-99.9,-100.00,North,-999,-999.0,-999.0,-999,0.05,,,0.21,,2013-02-24 16:22:00,
2013-02-24 11:52:00,32.0,-99.9,-100.00,North,-999,-999.0,-999.0,-999,0.12,,,0.33,,2013-02-24 16:52:00,
2013-02-24 12:02:00,32.0,-99.9,-100.00,North,-999,-999.0,-999.0,-999,0.12,,,0.33,,2013-02-24 17:02:00,
2013-02-24 12:12:00,32.0,-99.9,-100.00,North,-999,-999.0,-999.0,-999,0.11,,,0.35,,2013-02-24 17:12:00,
2013-02-24 12:22:00,32.0,-99.9,-100.00,North,-999,-999.0,-999.0,-999,0.11,,,0.35,,2013-02-24 17:22:00,
2013-02-24 12:30:00,32.0,-99.9,-100.00,North,-999,-999.0,-999.0,-999,0.06,,,0.39,,2013-02-24 17:30:00,
2013-02-24 12:32:00,32.0,-99.9,-100.00,North,-999,-999.0,-999.0,-999,0.11,,,0.35,,2013-02-24 17:32:00,
2013-02-24 12:42:00,32.0,-99.9,-100.00,North,-999,-999.0,-999.0,-999,0.11,,,0.35,,2013-02-24 17:42:00,
2013-02-24 12:53:00,32.0,-99.9,-100.00,North,-999,-999.0,-999.0,-999,0.06,,,0.39,,2013-02-24 17:53:00,
2013-02-24 13:02:00,32.0,-99.9,-100.00,North,-999,-999.0,-999.0,-999,0.06,,,0.39,,2013-02-24 18:02:00,
2013-02-24 13:12:00,32.0,-99.9,-100.00,North,-999,-999.0,-999.0,-999,0.06,,,0.39,,2013-02-24 18:12:00,
2013-02-24 13:22:00,32.0,-99.9,-100.00,North,-999,-999.0,-999.0,-999,0.06,,,0.39,,2013-02-24 18:22:00,
2013-02-24 13:30:00,33.0,-99.9,-100.00,North,-999,-999.0,-999.0,-999,0.02,,,0.41,,2013-02-24 18:30:00,
2013-02-24 13:52:00,33.0,-99.9,-100.00,North,-999,-999.0,-999.0,-999,0.02,,,0.41,,2013-02-24 18:52:00,
2013-02-24 14:02:00,33.0,-99.9,-100.00,North,-999,-999.0,-999.0,-999,0.02,,,0.41,,2013-02-24 19:02:00,
2013-02-24 14:12:00,33.0,-99.9,-100.00,North,-999,-999.0,-999.0,-999,0.02,,,0.41,,2013-02-24 19:12:00,
2013-02-24 14:22:00,33.0,-99.9,-100.00,North,-999,-999.0,-999.0,-999,0.02,,,0.41,,2013-02-24 19:22:00,
2013-02-24 14:30:00,33.0,-99.9,-100.00,North,-999,-999.0,-999.0,-999,0.00,,,0.41,,2013-02-24 19:30:00,
2013-02-24 15:02:00,33.0,-99.9,-100.00,North,-999,-999.0,-999.0,-999,0.00,,,0.41,,2013-02-24 20:02:00,
2013-02-24 15:11:00,33.0,-99.9,-100.00,North,-999,-999.0,-999.0,-999,0.00,,,0.41,,2013-02-24 20:11:00,
2013-02-24 15:22:00,33.0,-99.9,-100.00,North,-999,-999.0,-999.0,-999,0.00,,,0.41,,2013-02-24 20:22:00,
2013-02-24 15:30:00,34.0,-99.9,-100.00,North,-999,-999.0,-999.0,-999,0.00,,,0.39,,2013-02-24 20:30:00,
2013-02-24 15:52:00,34.0,-99.9,-100.00,North,-999,-999.0,-999.0,-999,0.00,,,0.39,,2013-02-24 20:52:00,
2013-02-24 16:02:00,34.0,-99.9,-100.00,North,-999,-999.0,-999.0,-999,0.00,,,0.39,,2013-02-24 21:02:00,
2013-02-24 16:11:00,34.0,-99.9,-100.00,North,-999,-999.0,-999.0,-999,0.00,,,0.39,,2013-02-24 21:11:00,
2013-02-24 16:22:00,34.0,-99.9,-100.00,North,-999,-999.0,-999.0,-999,0.00,,,0.39,,2013-02-24 21:22:00,
2013-02-24 16:30:00,33.0,-99.9,-100.00,North,-999,-999.0,-999.0,-999,0.01,,,0.40,,2013-02-24 21:30:00,
2013-02-24 17:02:00,33.0,-99.9,-100.00,North,-999,-999.0,-999.0,-999,0.01,,,0.40,,2013-02-24 22:02:00,
2013-02-24 17:11:00,33.0,-99.9,-100.00,North,-999,-999.0,-999.0,-999,0.01,,,0.40,,2013-02-24 22:11:00,
2013-02-24 17:22:00,33.0,-99.9,-100.00,North,-999,-999.0,-999.0,-999,0.01,,,0.40,,2013-02-24 22:22:00,
2013-02-24 17:30:00,32.0,-99.9,-100.00,North,-999,-999.0,-999.0,-999,0.00,,,0.39,,2013-02-24 22:30:00,
2013-02-24 18:02:00,32.0,-99.9,-100.00,North,-999,-999.0,-999.0,-999,0.00,,,0.39,,2013-02-24 23:02:00,
2013-02-24 18:11:00,32.0,-99.9,-100.00,North,-999,-999.0,-999.0,-999,0.00,,,0.39,,2013-02-24 23:11:00,
2013-02-24 18:22:00,32.0,-99.9,-100.00,North,-999,-999.0,-999.0,-999,0.00,,,0.39,,2013-02-24 23:22:00,
2013-02-24 18:30:00,32.0,-99.9,-100.00,North,-999,-999.0,-999.0,-999,0.00,,,0.37,,2013-02-24 23:30:00,
2013-02-24 18:52:00,32.0,-99.9,-100.00,North,-999,-999.0,-999.0,-999,0.00,,,0.37,,2013-02-24 23:52:00,
2013-02-24 19:02:00,32.0,-99.9,-100.00,North,-999,-999.0,-999.0,-999,0.00,,,0.37,,2013-02-25 00:02:00,
2013-02-24 19:12:00,32.0,-99.9,-100.00,North,-999,-999.0,-999.0,-999,0.00,,,0.37,,2013-02-25 00:12:00,
2013-02-24 19:22:00,32.0,-99.9,-100.00,North,-999,-999.0,-999.0,-999,0.00,,,0.37,,2013-02-25 00:22:00,
2013-02-24 19:30:00,32.0,-99.9,-100.00,North,-999,-999.0,-999.0,-999,0.00,,,0.35,,2013-02-25 00:30:00,
2013-02-24 19:52:00,32.0,-99.9,-100.00,North,-999,-999.0,-999.0,-999,0.00,,,0.35,,2013-02-25 00:52:00,
2013-02-24 20:02:00,32.0,-99.9,-100.00,North,-999,-999.0,-999.0,-999,0.00,,,0.35,,2013-02-25 01:02:00,
2013-02-24 20:11:00,32.0,-99.9,-100.00,North,-999,-999.0,-999.0,-999,0.00,,,0.35,,2013-02-25 01:11:00,
2013-02-24 20:22:00,32.0,-99.9,-100.00,North,-999,-999.0,-999.0,-999,0.00,,,0.35,,2013-02-25 01:22:00,
2013-02-24 20:30:00,31.0,-99.9,-100.00,North,-999,-999.0,-999.0,-999,0.01,,,0.36,,2013-02-25 01:30:00,
2013-02-24 20:52:00,31.0,-99.9,-100.00,North,-999,-999.0,-999.0,-999,0.01,,,0.36,,2013-02-25 01:52:00,
2013-02-24 21:01:00,31.0,-99.9,-100.00,North,-999,-999.0,-999.0,-999,0.01,,,0.36,,2013-02-25 02:01:00,
2013-02-24 21:11:00,31.0,-99.9,-100.00,North,-999,-999.0,-999.0,-999,0.01,,,0.36,,2013-02-25 02:11:00,
2013-02-24 21:22:00,31.0,-99.9,-100.00,North,-999,-999.0,-999.0,-999,0.01,,,0.36,,2013-02-25 02:22:00,
2013-02-24 21:30:00,30.0,-99.9,-100.00,North,-999,-999.0,-999.0,-999,0.01,,,0.36,,2013-02-25 02:30:00,
2013-02-24 22:02:00,30.0,-99.9,-100.00,North,-999,-999.0,-999.0,-999,0.01,,,0.36,,2013-02-25 03:02:00,
2013-02-24 22:12:00,30.0,-99.9,-100.00,North,-999,-999.0,-999.0,-999,0.01,,,0.36,,2013-02-25 03:12:00,
2013-02-24 22:22:00,30.0,-99.9,-100.00,North,-999,-999.0,-999.0,-999,0.01,,,0.36,,2013-02-25 03:22:00,
2013-02-24 22:30:00,30.0,-99.9,-100.00,North,-999,-999.0,-999.0,-999,0.02,,,0.37,,2013-02-25 03:30:00,
2013-02-24 23:02:00,30.0,-99.9,-100.00,North,-999,-999.0,-999.0,-999,0.02,,,0.37,,2013-02-25 04:02:00,
2013-02-24 23:11:00,30.0,-99.9,-100.00,North,-999,-999.0,-999.0,-999,0.02,,,0.37,,2013-02-25 04:11:00,
2013-02-24 23:22:00,30.0,-99.9,-100.00,North,-999,-999.0,-999.0,-999,0.02,,,0.37,,2013-02-25 04:22:00,
2013-02-24 23:52:00,30.0,-99.9,-100.00,North,-999,-999.0,-999.0,-999,0.01,,,0.38,,2013-02-25 04:52:00,